Вернуться в каталог

ONEWEB-0564

АктивенСвязьPO
NORAD 55801·PAYLOAD·🇬🇧 United Kingdom

Запущен Mar 9, 2023 с Cape Canaveral Space Force Station

Loading…

Ближайшие Пролёты (ближайшие 24 часа)

TLE

СвежийSource: CelesTrak SupGP

Эпоха: Sep 14, 2026, 15:03 UTC

1 55801C 23029F   26257.62726111 -.00001438  00000+0 -35410-2 0  2572
2 55801  87.9140 256.6077 0002260  97.9060  11.9827 13.20774505    17

Отслеживайте ONEWEB-0564 в реальном времени с AllMySat

Download on the App Store